Location: North Evanston
(42.0634°N, 87.6976°W)
Time: 00:39:46
(UTC+00:00)

A-11 Canister half - All Passes

Search period start: 12 May 2026 00:00
Search period end: 22 May 2026 00:00
Orbit: 1523 x 1685 km, 47.3° (Epoch: 11 May)

Date Brightness Start Highest point End Pass type
(mag) Time Alt. Az. Time Alt. Az. Time Alt. Az.
12 May - 01:03:37 10° WSW 01:13:18 77° NNW 01:23:21 10° ENE daylight
12 May - 03:09:30 10° WNW 03:19:19 67° N 03:29:25 10° E visible
12 May - 05:14:55 10° WNW 05:24:57 80° SSW 05:35:08 10° SE visible
12 May - 07:20:47 10° WNW 07:29:08 31° SW 07:37:33 10° S visible
12 May - 20:39:33 10° SSE 20:43:26 13° ESE 20:47:21 10° E daylight
12 May - 22:37:34 10° SSW 22:46:36 51° SE 22:55:57 10° ENE daylight
13 May - 00:41:44 10° WSW 00:51:25 78° NNW 01:01:27 10° ENE daylight
13 May - 02:47:36 10° WNW 02:57:23 66° N 03:07:28 10° E visible
13 May - 04:53:03 10° WNW 05:03:03 82° SSW 05:13:15 10° ESE visible
13 May - 06:58:48 10° WNW 07:07:19 33° SW 07:15:55 10° S visible
13 May - 20:18:38 10° SE 20:21:41 12° ESE 20:24:45 10° ESE daylight
13 May - 22:15:51 10° SSW 22:24:47 49° SE 22:34:01 10° ENE daylight
14 May - 00:19:52 10° WSW 00:29:31 80° NNW 00:39:32 10° ENE daylight
14 May - 02:25:43 10° WNW 02:35:28 66° N 02:45:31 10° E visible
14 May - 04:31:11 10° WNW 04:41:11 85° SSW 04:51:22 10° ESE visible
14 May - 06:36:50 10° WNW 06:45:31 34° SW 06:54:16 10° SSE visible
14 May - 19:58:08 10° SE 19:59:57 11° ESE 20:01:47 10° ESE daylight
14 May - 21:54:09 10° SSW 22:02:58 47° SE 22:12:06 10° ENE daylight
14 May - 23:58:01 10° WSW 00:07:37 81° NNW 00:17:37 10° ENE daylight
15 May - 02:03:49 10° WNW 02:13:32 65° N 02:23:34 10° E visible
15 May - 04:09:19 10° WNW 04:19:17 87° SSW 04:29:29 10° ESE visible
15 May - 06:14:54 10° WNW 06:23:42 36° SW 06:32:35 10° SSE visible
15 May - 21:32:27 10° SSW 21:41:10 44° SE 21:50:10 10° ENE daylight
15 May - 23:36:10 10° WSW 23:45:44 83° NNW 23:55:42 10° ENE daylight
16 May - 01:41:56 10° W 01:51:37 65° N 02:01:37 10° E visible
16 May - 03:47:26 10° WNW 03:57:23 89° SW 04:07:35 10° ESE visible
16 May - 05:52:57 10° WNW 06:01:52 38° SW 06:10:55 10° SSE visible
16 May - 21:10:47 10° SSW 21:19:22 42° SE 21:28:13 10° ENE daylight
16 May - 23:14:18 10° WSW 23:23:51 85° NNW 23:33:47 10° ENE daylight
17 May - 01:20:02 10° W 01:29:41 65° N 01:39:40 10° E visible
17 May - 03:25:35 10° WNW 03:35:30 89° NNE 03:45:42 10° ESE visible
17 May - 05:31:02 10° WNW 05:40:03 40° SW 05:49:12 10° SSE visible
17 May - 20:49:07 10° SSW 20:57:35 40° SE 21:06:18 10° ENE daylight
17 May - 22:52:27 10° WSW 23:01:59 87° NNW 23:11:53 10° ENE daylight
18 May - 00:58:09 10° W 01:07:46 65° N 01:17:44 10° E daylight
18 May - 03:03:43 10° WNW 03:13:37 86° NNE 03:23:47 10° ESE visible
18 May - 05:09:06 10° WNW 05:18:13 42° SW 05:27:30 10° SSE visible
18 May - 20:27:28 10° SSW 20:35:48 38° SE 20:44:20 10° ENE daylight
18 May - 22:30:37 10° WSW 22:40:07 89° NNW 22:49:58 10° ENE daylight
19 May - 00:36:16 10° W 00:45:51 65° N 00:55:47 10° E daylight
19 May - 02:41:50 10° WNW 02:51:43 84° NNE 03:01:52 10° ESE visible
19 May - 04:47:11 10° WNW 04:56:24 44° SW 05:05:46 10° SSE visible
19 May - 06:58:37 10° WSW 06:59:34 10° WSW 07:00:31 10° SW visible
19 May - 20:05:49 10° SSW 20:14:00 36° SE 20:22:23 10° ENE daylight
19 May - 22:08:47 10° WSW 22:18:14 88° SSE 22:28:05 10° ENE daylight
20 May - 00:14:22 10° W 00:23:55 65° N 00:33:49 10° E daylight
20 May - 02:19:58 10° WNW 02:29:49 83° NNE 02:39:57 10° ESE visible
20 May - 04:25:18 10° WNW 04:34:34 46° SW 04:44:01 10° SSE visible
20 May - 06:35:06 10° WSW 06:37:48 11° WSW 06:40:30 10° SW visible
20 May - 19:44:12 10° SSW 19:52:13 34° SE 20:00:25 10° ENE daylight
20 May - 21:46:56 10° WSW 21:56:22 86° SSE 22:06:10 10° ENE daylight
20 May - 23:52:29 10° W 00:02:00 65° N 00:11:53 10° ENE daylight
21 May - 01:58:07 10° WNW 02:07:55 81° NNE 02:18:02 10° ESE visible
21 May - 04:03:24 10° WNW 04:12:44 49° SW 04:22:16 10° SSE visible
21 May - 06:12:24 10° W 06:16:02 12° WSW 06:19:42 10° SW visible
21 May - 19:22:36 10° S 19:30:27 32° SE 19:38:27 10° ENE daylight
21 May - 21:25:07 10° WSW 21:34:31 84° SSE 21:44:16 10° ENE daylight
21 May - 23:30:36 10° W 23:40:05 65° N 23:49:56 10° ENE daylight
